Location: UMBC
(39.2555°N, 76.7093°W)
Time: 17:56:09
(UTC+01:00)

Amateur Radio Satellites - All Passes

Search period start: 28 November 2014 17:26
Search period end: 29 November 2014 17:26
Location: UMBC, 39.2555°N, 76.7093°W

Satellite Date Start Highest point End Downlink Frequencies (MHz)
Time Altitude Azimuth
DELFI C3 28 Nov 17:26:02 17:27:06 11° 296° (WNW) 17:28:09 145.870
UKube-1 28 Nov 17:28:23 17:29:59 12° 297° (WNW) 17:31:35 .
50 SAT 28 Nov 17:30:23 17:34:03 33° 288° (WNW) 17:37:45 437.505
HO-68 28 Nov 17:32:08 17:34:49 12° 309° (NW) 17:37:31 435.675
FUNcube-1 28 Nov 17:34:24 17:37:15 18° 293° (WNW) 17:40:08 145.935
POLYITAN 1 28 Nov 17:34:44 17:36:30 12° 269° (W) 17:38:16 437.675
YUBILEINY 28 Nov 17:34:56 17:39:40 15° 61° (ENE) 17:44:22 435.215
QB50P2 28 Nov 17:35:49 17:37:28 12° 269° (W) 17:39:07 145.880/145.840
AISAT 28 Nov 17:37:41 17:41:23 27° 291° (WNW) 17:45:04 437.250
CUBEBUG 1 28 Nov 17:40:20 17:44:40 68° 285° (WNW) 17:48:57 437.445
DUCHIFAT 1 28 Nov 17:40:45 17:41:48 11° 269° (W) 17:42:51 145.980
Oscar 19 28 Nov 17:51:49 17:55:50 24° 66° (ENE) 17:59:52 437.125/150
HUMSAT D 28 Nov 18:00:19 18:02:39 15° 294° (WNW) 18:05:00 437.325/437.525
SO-50 28 Nov 18:02:12 18:07:06 88° 59° (ENE) 18:12:01 436.795
DANDE 28 Nov 18:16:56 18:19:12 23° 95° (E) 18:21:23 436.750
AUBIESAT-1 28 Nov 18:22:31 18:24:28 12° 94° (E) 18:26:24 437.475
M-CUBED/EXP-1 PRIME 28 Nov 18:28:43 18:31:45 16° 96° (E) 18:34:43 437.505
TISAT 1 28 Nov 18:35:39 18:39:50 64° 285° (WNW) 18:43:58 437.305
ITAMSAT 1 28 Nov 18:50:02 18:54:40 33° 68° (ENE) 18:59:18 435.822/435.867
SPROUT 28 Nov 18:53:52 18:57:57 45° 287° (WNW) 19:02:01 437.525
ESTCUBE 1 28 Nov 18:56:04 18:57:44 12° 298° (WNW) 18:59:24 437.505/2401.250
VERMONT LUNAR 28 Nov 18:58:46 19:01:58 31° 153° (SSE) 19:05:12 437.305
PHONESAT 2.4 28 Nov 18:58:52 19:01:50 23° 149° (SSE) 19:04:50 2401.200-2431.200
ITUPSAT 1 28 Nov 18:59:10 19:03:22 29° 96° (E) 19:07:31 437.325
SWISSCUBE 28 Nov 19:08:48 19:13:21 41° 99° (E) 19:17:50 437.505
CUSAT 1 28 Nov 19:22:57 19:24:40 16° 286° (WNW) 19:26:23 437.405
AO-7 28 Nov 19:23:41 19:28:21 17° 49° (NE) 19:33:02 29.400- 29.500
YUBILEINY 28 Nov 19:29:12 19:37:58 80° 82° (E) 19:46:38 435.215
Oscar 19 28 Nov 19:30:10 19:34:55 39° 262° (W) 19:39:43 437.125/150
Gurwin Techsat 1B 28 Nov 19:37:10 19:42:18 53° 72° (ENE) 19:47:28 435.225
BEESAT 28 Nov 19:39:06 19:43:55 80° 103° (ESE) 19:48:41 436.000
HORYU 2 28 Nov 19:39:27 19:42:47 21° 67° (ENE) 19:46:08 437.375
SO-50 28 Nov 19:46:27 19:46:56 10° 254° (WSW) 19:47:25 436.795
AUBIESAT-1 28 Nov 19:55:01 19:59:55 72° 290° (WNW) 20:04:38 437.475
M-CUBED/EXP-1 PRIME 28 Nov 20:02:15 20:07:05 56° 292° (WNW) 20:11:45 437.505
STARS 28 Nov 20:13:15 20:16:50 24° 96° (E) 20:20:24 437.465
MaSat-1 28 Nov 20:14:51 20:17:46 58° 113° (ESE) 20:20:26 437.345
ITAMSAT 1 28 Nov 20:29:40 20:34:07 28° 264° (W) 20:38:36 435.822/435.867
PHONESAT 2.4 28 Nov 20:36:37 20:40:20 79° 165° (SSE) 20:44:03 2401.200-2431.200
VERMONT LUNAR 28 Nov 20:36:38 20:40:15 87° 349° (NNW) 20:43:53 437.305
ITUPSAT 1 28 Nov 20:37:06 20:41:10 28° 292° (WNW) 20:45:12 437.325
O/OREOS (USA 219) 28 Nov 20:45:42 20:49:50 36° 63° (ENE) 20:53:57 437.305
JAS-2 28 Nov 20:46:39 20:51:18 17° 56° (NE) 20:55:58 435.910
SWISSCUBE 28 Nov 20:47:23 20:50:54 21° 295° (WNW) 20:54:24 437.505
KKS-1 28 Nov 20:59:03 21:03:28 68° 285° (WNW) 21:07:52 437.445
RS-15 28 Nov 21:02:49 21:13:18 53° 111° (ESE) 21:23:42 29.354- 29.394
AO-7 28 Nov 21:11:30 21:19:44 74° 69° (ENE) 21:28:02 29.400- 29.500
HORYU 2 28 Nov 21:15:14 21:19:14 34° 262° (W) 21:23:17 437.375
Gurwin Techsat 1B 28 Nov 21:18:58 21:22:33 18° 268° (W) 21:26:09 435.225
BEESAT 28 Nov 21:19:36 21:21:04 11° 299° (WNW) 21:22:32 436.000
YUBILEINY 28 Nov 21:28:00 21:33:38 19° 281° (W) 21:39:15 435.215
STARS 28 Nov 21:49:31 21:53:17 28° 291° (WNW) 21:57:03 437.465
VERMONT LUNAR 28 Nov 22:15:13 22:18:50 74° 6° (N) 22:22:28 437.305
PHONESAT 2.4 28 Nov 22:15:29 22:19:12 71° 2° (N) 22:22:55 2401.200-2431.200
MOZHAYETS 4 28 Nov 22:23:42 22:27:38 26° 95° (E) 22:31:32
O/OREOS (USA 219) 28 Nov 22:25:44 22:28:57 20° 259° (W) 22:32:11 437.305
JAS-2 28 Nov 22:27:26 22:35:06 80° 74° (ENE) 22:42:59 435.910
CUTE-I 28 Nov 22:31:47 22:35:49 22° 64° (ENE) 22:39:51 437.470
AO-7 28 Nov 23:07:06 23:13:11 22° 267° (W) 23:19:21 29.400- 29.500
RS-15 28 Nov 23:15:27 23:25:47 46° 314° (NW) 23:36:14 29.354- 29.394
GONETS M04 28 Nov 23:25:02 23:30:38 18° 63° (ENE) 23:36:09
Cubesat XI-IV 28 Nov 23:29:32 23:34:53 76° 74° (ENE) 23:40:15 437.490
PCSat 28 Nov 23:52:08 23:56:01 21° 106° (ESE) 23:59:56 145.827
VERMONT LUNAR 28 Nov 23:53:45 23:57:16 48° 202° (SSW) 00:00:46 437.305
PHONESAT 2.4 28 Nov 23:54:20 23:58:01 63° 199° (SSW) 00:01:42 2401.200-2431.200
MOZHAYETS 4 29 Nov 00:00:48 00:04:48 29° 291° (WNW) 00:08:48
PRISM 29 Nov 00:09:54 00:14:07 65° 102° (ESE) 00:18:17 437.425
CUTE-I 29 Nov 00:10:24 00:15:32 47° 261° (W) 00:20:42 437.470
CUBESAT XI-V 29 Nov 00:13:13 00:17:10 27° 95° (E) 00:21:04 437.345
STRAND 1 29 Nov 00:14:50 00:19:07 27° 96° (E) 00:23:21 437.568
JAS-2 29 Nov 00:15:24 00:20:47 20° 271° (W) 00:26:18 435.910
HO-68 29 Nov 00:24:28 00:28:31 16° 54° (NE) 00:32:34 435.675
BEESAT 3 29 Nov 00:31:19 00:34:30 22° 112° (ESE) 00:37:45 437.485
BEESAT 2 29 Nov 00:48:41 00:52:19 31° 114° (ESE) 00:56:01 435.950
BRITE-PL 29 Nov 00:54:40 00:55:58 11° 64° (ENE) 00:57:15 437.365/2234.400
Cubesat XI-IV 29 Nov 01:13:16 01:15:30 13° 270° (W) 01:17:44 437.490
GONETS M04 29 Nov 01:19:52 01:28:45 89° 84° (E) 01:37:31
AIST 1 29 Nov 01:22:56 01:27:20 89° 277° (W) 01:31:47
COMPASS 1 29 Nov 01:29:30 01:32:09 17° 66° (ENE) 01:34:50 437.405
CANX-2 29 Nov 01:32:32 01:36:04 27° 70° (ENE) 01:39:38 2200.000
PCSat 29 Nov 01:33:44 01:39:00 52° 302° (WNW) 01:44:19 145.827
VERMONT LUNAR 29 Nov 01:33:56 01:35:11 12° 216° (SW) 01:36:27 437.305
PHONESAT 2.4 29 Nov 01:33:57 01:36:23 17° 214° (SSW) 01:38:50 2401.200-2431.200
RS-15 29 Nov 01:34:51 01:42:02 19° 346° (NNW) 01:49:20 29.354- 29.394
AIST 2 29 Nov 01:35:52 01:39:56 50° 117° (ESE) 01:44:05 435.215
GOMX 1 29 Nov 01:46:17 01:50:11 27° 70° (ENE) 01:53:54 467.674
PRISM 29 Nov 01:47:54 01:49:06 11° 298° (WNW) 01:50:17 437.425
DX 1 29 Nov 01:49:29 01:51:20 13° 63° (ENE) 01:53:12 434.975-435.025
CUBESAT XI-V 29 Nov 01:50:34 01:54:32 28° 291° (WNW) 01:58:28 437.345
STRAND 1 29 Nov 01:53:44 01:58:18 34° 291° (WNW) 02:02:50 437.568
CUTE 1.7 + AOD 2 29 Nov 02:06:04 02:10:12 60° 75° (ENE) 02:14:23 437.475
HO-68 29 Nov 02:07:58 02:15:09 84° 73° (ENE) 02:22:23 435.675
BEESAT 3 29 Nov 02:08:50 02:12:33 32° 308° (NW) 02:16:19 437.485
ZACube-1 29 Nov 02:20:58 02:22:31 12° 64° (ENE) 02:24:03 437.345
BEESAT 2 29 Nov 02:27:12 02:30:37 24° 311° (NW) 02:34:05 435.950
DOVE 4 29 Nov 02:27:39 02:32:05 54° 74° (ENE) 02:36:18 437.250
BRITE-PL 29 Nov 02:29:01 02:33:59 76° 258° (WSW) 02:38:35 437.365/2234.400
VELOX 1 29 Nov 02:32:54 02:34:25 12° 62° (ENE) 02:35:56 145.980
SEEDS 29 Nov 02:35:12 02:39:23 72° 259° (WSW) 02:43:35 437.485
DELFI C3 29 Nov 02:36:17 02:39:58 34° 71° (ENE) 02:43:40 145.870
CINEMA 3 29 Nov 02:41:30 02:45:39 45° 73° (ENE) 02:49:40 145.822/145.860
UKube-1 29 Nov 02:44:13 02:48:23 47° 72° (ENE) 02:52:34 .
AAUSAT CUBESAT 2 29 Nov 02:45:54 02:50:02 73° 258° (WSW) 02:54:13 437.432
50 SAT 29 Nov 02:46:16 02:47:04 11° 64° (ENE) 02:47:53 437.505
FUNcube-1 29 Nov 02:52:56 02:56:26 27° 70° (ENE) 02:59:55 145.935
Oscar 11 29 Nov 02:53:07 02:57:22 66° 75° (ENE) 03:01:39 145.826/435.025
AISAT 29 Nov 02:58:51 03:02:19 23° 67° (ENE) 03:05:47 437.250
COMPASS 1 29 Nov 03:03:41 03:07:34 38° 262° (W) 03:11:30 437.405
ISS 29 Nov 03:04:21 03:06:11 14° 129° (SE) 03:08:02 145.825
CANX-2 29 Nov 03:08:35 03:11:58 23° 265° (W) 03:15:23 2200.000
HUMSAT D 29 Nov 03:15:04 03:18:36 28° 70° (ENE) 03:22:09 437.325/437.525
AIST 2 29 Nov 03:15:52 03:18:51 18° 314° (NW) 03:21:51 435.215
GONETS M04 29 Nov 03:19:08 03:24:15 17° 283° (WNW) 03:29:21
DX 1 29 Nov 03:22:44 03:27:03 61° 259° (WSW) 03:31:24 434.975-435.025
GOMX 1 29 Nov 03:24:15 03:28:14 27° 263° (W) 03:32:03 467.674
UWE-3 29 Nov 03:26:00 03:30:13 79° 76° (ENE) 03:34:23 435.000/436.395/437.385
CUBEBUG 2 29 Nov 03:32:13 03:36:28 75° 258° (WSW) 03:40:39 437.445
UNISAT 6 29 Nov 03:33:36 03:34:53 11° 91° (E) 03:36:10 437.425
CUTE 1.7 + AOD 2 29 Nov 03:45:46 03:46:31 10° 270° (W) 03:47:16 437.475
DUCHIFAT 1 29 Nov 03:51:26 03:51:31 10° 90° (E) 03:51:36 145.980
RS-15 29 Nov 03:52:09 04:00:18 22° 23° (NNE) 04:08:38 29.354- 29.394
ZACube-1 29 Nov 03:54:17 03:58:25 56° 260° (W) 04:02:31 437.345
HO-68 29 Nov 03:59:22 04:03:36 16° 269° (W) 04:07:52 435.675
ANTELSAT 29 Nov 04:00:42 04:04:18 23° 95° (E) 04:07:57 437.575/2403.000
VELOX 1 29 Nov 04:05:58 04:10:25 69° 258° (WSW) 04:14:53 145.980
DOVE 4 29 Nov 04:08:13 04:10:07 12° 268° (W) 04:11:59 437.250
NANOSAT C BR1 29 Nov 04:08:50 04:11:41 18° 94° (E) 04:14:32 145.865
DELFI C3 29 Nov 04:12:39 04:15:22 17° 267° (W) 04:18:06 145.870
BUGSAT 1 29 Nov 04:13:54 04:16:21 15° 93° (E) 04:18:46 437.445
SPROUT 29 Nov 04:14:31 04:15:36 11° 63° (ENE) 04:16:41 437.525
ESTCUBE 1 29 Nov 04:15:37 04:20:03 55° 73° (ENE) 04:24:31 437.505/2401.250
CUSAT 1 29 Nov 04:16:50 04:20:32 19° 75° (ENE) 04:24:55 437.405
50 SAT 29 Nov 04:17:53 04:21:51 60° 259° (W) 04:25:51 437.505
QB50P1 29 Nov 04:18:46 04:22:08 23° 95° (E) 04:25:29 145.935-145.965
CINEMA 3 29 Nov 04:20:47 04:23:04 14° 267° (W) 04:25:19 145.822/145.860
UKube-1 29 Nov 04:22:25 04:24:47 14° 267° (W) 04:27:10 .
FUNcube-1 29 Nov 04:29:26 04:32:45 23° 265° (W) 04:36:05 145.935
AISAT 29 Nov 04:34:45 04:38:46 32° 263° (W) 04:42:48 437.250
CUBEBUG 1 29 Nov 04:35:22 04:39:49 88° 77° (ENE) 04:44:17 437.445
ISS 29 Nov 04:39:16 04:42:29 56° 325° (NW) 04:45:44 145.825
POPSAT HIP 1 29 Nov 04:43:29 04:47:32 44° 99° (E) 04:51:33 437.405
HUMSAT D 29 Nov 04:51:17 04:54:25 21° 265° (W) 04:57:34 437.325/437.525
TIGRISAT 29 Nov 04:52:06 04:56:35 84° 103° (ESE) 05:01:09 435.000
DANDE 29 Nov 04:55:39 05:00:10 35° 78° (ENE) 05:06:02 436.750
UNISAT 6 29 Nov 05:07:35 05:12:02 65° 285° (WNW) 05:16:34 437.425
AUBIESAT-1 29 Nov 05:11:04 05:13:13 14° 57° (ENE) 05:15:27 437.475
M-CUBED/EXP-1 PRIME 29 Nov 05:17:47 05:20:35 17° 59° (ENE) 05:23:32 437.505
POLYITAN 1 29 Nov 05:18:54 05:23:07 69° 285° (WNW) 05:27:19 437.675
QB50P2 29 Nov 05:19:38 05:23:51 67° 285° (WNW) 05:28:03 145.880/145.840
DUCHIFAT 1 29 Nov 05:23:36 05:27:46 61° 285° (WNW) 05:31:55 145.980
TISAT 1 29 Nov 05:27:04 05:31:20 83° 76° (ENE) 05:35:36 437.305
ANTELSAT 29 Nov 05:37:08 05:41:06 32° 290° (WNW) 05:45:09 437.575/2403.000
NANOSAT C BR1 29 Nov 05:43:49 05:47:41 36° 289° (WNW) 05:51:32 145.865
SPROUT 29 Nov 05:46:49 05:51:07 68° 259° (WSW) 05:55:25 437.525
BUGSAT 1 29 Nov 05:48:15 05:52:00 37° 288° (WNW) 05:55:43 437.445
MaSat-1 29 Nov 05:53:30 05:55:49 73° 65° (ENE) 05:58:15 437.345
QB50P1 29 Nov 05:54:24 05:58:00 28° 290° (WNW) 06:01:35 145.935-145.965
ESTCUBE 1 29 Nov 05:55:05 05:57:15 13° 269° (W) 05:59:27 437.505/2401.250
CUSAT 1 29 Nov 05:58:36 06:03:38 56° 263° (W) 06:10:17 437.405
RS-15 29 Nov 06:04:35 06:15:40 60° 52° (NE) 06:27:13 29.354- 29.394
ITUPSAT 1 29 Nov 06:05:13 06:09:26 31° 69° (ENE) 06:13:40 437.325
SWISSCUBE 29 Nov 06:14:31 06:19:02 42° 71° (ENE) 06:23:35 437.505
JUGNU 29 Nov 06:16:46 06:17:55 11° 182° (S) 06:19:05 437.505
ISS 29 Nov 06:17:54 06:19:42 14° 343° (NNW) 06:21:30 145.825
POPSAT HIP 1 29 Nov 06:20:36 06:23:04 15° 295° (WNW) 06:25:31 437.405
SRMSAT 29 Nov 06:33:45 06:34:47 10° 175° (S) 06:35:49 437.500
YUBILEINY 29 Nov 06:36:02 06:41:22 18° 78° (ENE) 06:46:41 435.215
DANDE 29 Nov 06:39:13 06:43:35 29° 265° (W) 06:49:06 436.750
AUBIESAT-1 29 Nov 06:43:31 06:47:35 62° 255° (WSW) 06:52:03 437.475
BEESAT 29 Nov 06:44:34 06:49:21 81° 75° (ENE) 06:54:11 436.000
M-CUBED/EXP-1 PRIME 29 Nov 06:51:15 06:55:11 45° 257° (WSW) 06:59:31 437.505
ITAMSAT 1 29 Nov 07:05:54 07:07:52 12° 90° (E) 07:09:49 435.822/435.867
STARS 29 Nov 07:10:09 07:13:20 20° 67° (ENE) 07:16:32 437.465
Oscar 19 29 Nov 07:42:16 07:47:28 80° 103° (ESE) 07:52:39 437.125/150
ITUPSAT 1 29 Nov 07:43:16 07:47:18 26° 264° (W) 07:51:21 437.325
SWISSCUBE 29 Nov 07:53:40 07:57:04 19° 267° (W) 08:00:29 437.505
Gurwin Techsat 1B 29 Nov 07:55:07 07:59:16 23° 94° (E) 08:03:23 435.225
KKS-1 29 Nov 07:56:10 08:00:37 86° 257° (WSW) 08:05:06 437.445
SO-50 29 Nov 08:16:21 08:20:26 35° 114° (ESE) 08:24:39 436.795
RS-15 29 Nov 08:17:30 08:27:35 40° 253° (WSW) 08:38:06 29.354- 29.394
SRMSAT 29 Nov 08:22:25 08:23:01 10° 186° (S) 08:23:37 437.500
YUBILEINY 29 Nov 08:28:07 08:36:56 86° 277° (W) 08:45:46 435.215
PCSat 29 Nov 08:40:31 08:43:53 16° 44° (NE) 08:47:15 145.827
ITAMSAT 1 29 Nov 08:42:42 08:47:52 74° 286° (WNW) 08:53:00 435.822/435.867
STARS 29 Nov 08:45:32 08:49:35 35° 262° (W) 08:53:38 437.465
BEESAT 3 29 Nov 08:52:34 08:54:45 14° 43° (NE) 08:56:55 437.485
HORYU 2 29 Nov 09:07:26 09:11:48 48° 100° (E) 09:16:09 437.375
BEESAT 2 29 Nov 09:10:16 09:13:10 18° 46° (NE) 09:16:02 435.950
AO-7 29 Nov 09:15:15 09:21:53 26° 95° (E) 09:28:28 29.400- 29.500
Oscar 19 29 Nov 09:23:52 09:26:06 13° 299° (WNW) 09:28:20 437.125/150
MOZHAYETS 4 29 Nov 09:25:13 09:28:48 23° 67° (ENE) 09:32:24
ISS 29 Nov 09:32:36 09:35:10 20° 24° (NNE) 09:37:43 145.825
Gurwin Techsat 1B 29 Nov 09:34:23 09:39:22 42° 290° (WNW) 09:44:20 435.225
JAS-2 29 Nov 09:44:38 09:45:14 10° 83° (E) 09:45:49 435.910
SO-50 29 Nov 09:57:13 10:01:02 26° 312° (NW) 10:04:59 436.795
AIST 2 29 Nov 09:59:11 10:02:50 26° 49° (NE) 10:06:27 435.215
PCSat 29 Nov 10:22:32 10:27:59 83° 243° (WSW) 10:33:23 145.827
BEESAT 3 29 Nov 10:29:17 10:33:27 71° 241° (WSW) 10:37:34 437.485
YUBILEINY 29 Nov 10:29:45 10:35:04 17° 297° (WNW) 10:40:25 435.215
HORYU 2 29 Nov 10:45:21 10:48:04 16° 296° (WNW) 10:50:47 437.375
BEESAT 2 29 Nov 10:47:39 10:51:44 49° 243° (WSW) 10:55:44 435.950
O/OREOS (USA 219) 29 Nov 10:56:39 11:00:59 51° 107° (ESE) 11:05:20 437.305
PRISM 29 Nov 10:59:48 11:03:46 41° 72° (ENE) 11:07:46 437.425
MOZHAYETS 4 29 Nov 11:01:40 11:05:49 34° 263° (W) 11:10:01
AO-7 29 Nov 11:06:55 11:15:12 68° 292° (WNW) 11:23:27 29.400- 29.500
ISS 29 Nov 11:08:47 11:12:02 60° 221° (SW) 11:15:16 145.825
CUBESAT XI-V 29 Nov 11:15:59 11:19:47 25° 68° (ENE) 11:23:36 437.345
JAS-2 29 Nov 11:24:41 11:31:37 79° 103° (ESE) 11:37:38 435.910
STRAND 1 29 Nov 11:29:37 11:34:16 35° 69° (ENE) 11:38:55 437.568
AIST 1 29 Nov 11:32:19 11:35:34 20° 73° (ENE) 11:38:48
AIST 2 29 Nov 11:37:41 11:41:28 31° 247° (WSW) 11:45:11 435.215
Cubesat XI-IV 29 Nov 11:48:23 11:53:08 32° 97° (E) 11:57:51 437.490
GONETS M04 29 Nov 12:25:59 12:31:57 21° 79° (E) 12:37:55
CUTE-I 29 Nov 12:28:23 12:33:43 77° 103° (ESE) 12:39:01 437.470
PRISM 29 Nov 12:37:01 12:39:30 15° 267° (W) 12:42:00 437.425
O/OREOS (USA 219) 29 Nov 12:37:58 12:40:42 16° 304° (NW) 12:43:26 437.305
CUBESAT XI-V 29 Nov 12:52:50 12:57:03 32° 264° (W) 13:01:18 437.345
AO-7 29 Nov 13:02:15 13:06:26 15° 312° (NW) 13:10:37 29.400- 29.500
STRAND 1 29 Nov 13:09:13 13:13:28 26° 265° (W) 13:17:45 437.568
AIST 1 29 Nov 13:09:26 13:13:16 31° 270° (W) 13:17:03
JAS-2 29 Nov 13:11:18 13:15:39 18° 303° (WNW) 13:19:42 435.910
Cubesat XI-IV 29 Nov 13:28:32 13:33:08 30° 293° (WNW) 13:37:42 437.490
HO-68 29 Nov 13:39:05 13:43:07 16° 90° (E) 13:47:07 435.675
CUTE 1.7 + AOD 2 29 Nov 13:55:00 13:56:24 11° 90° (E) 13:57:49 437.475
CUTE-I 29 Nov 14:10:29 14:13:06 14° 300° (WNW) 14:15:43 437.470
GONETS M04 29 Nov 14:18:52 14:27:41 78° 278° (W) 14:36:35
SEEDS 29 Nov 14:21:52 14:25:06 21° 94° (E) 14:28:19 437.485
DOVE 4 29 Nov 14:29:02 14:31:23 14° 93° (E) 14:33:47 437.250
AAUSAT CUBESAT 2 29 Nov 14:31:31 14:34:37 19° 94° (E) 14:37:42 437.432
BRITE-PL 29 Nov 14:35:06 14:38:50 31° 97° (E) 14:42:40 437.365/2234.400
CINEMA 3 29 Nov 14:39:36 14:40:51 11° 91° (E) 14:42:07 145.822/145.860
Oscar 11 29 Nov 14:43:26 14:45:31 13° 91° (E) 14:47:36 145.826/435.025
COMPASS 1 29 Nov 14:48:43 14:52:38 35° 97° (E) 14:56:31 437.405
CANX-2 29 Nov 14:54:13 14:58:30 62° 101° (E) 15:02:46 2200.000
ANTELSAT 29 Nov 15:00:06 15:02:58 18° 66° (ENE) 15:05:52 437.575/2403.000
NANOSAT C BR1 29 Nov 15:02:15 15:04:10 13° 64° (ENE) 15:06:04 145.865
BUGSAT 1 29 Nov 15:05:00 15:06:17 11° 63° (ENE) 15:07:33 437.445
QB50P1 29 Nov 15:11:48 15:14:29 17° 66° (ENE) 15:17:10 145.935-145.965
DX 1 29 Nov 15:12:55 15:16:26 24° 96° (E) 15:19:57 434.975-435.025
UWE-3 29 Nov 15:18:08 15:20:56 17° 93° (E) 15:23:46 435.000/436.395/437.385
HO-68 29 Nov 15:24:24 15:31:36 86° 287° (WNW) 15:38:45 435.675
CUBEBUG 2 29 Nov 15:24:56 15:28:23 23° 95° (E) 15:31:55 437.445
GOMX 1 29 Nov 15:26:03 15:30:16 90° 104° (ESE) 15:34:37 467.674
CUTE 1.7 + AOD 2 29 Nov 15:28:27 15:32:40 57° 286° (WNW) 15:36:53 437.475
POPSAT HIP 1 29 Nov 15:35:56 15:39:38 30° 70° (ENE) 15:43:21 437.405
ZACube-1 29 Nov 15:44:21 15:48:03 28° 96° (E) 15:51:48 437.345
TIGRISAT 29 Nov 15:50:16 15:54:27 64° 75° (ENE) 15:58:41 435.000
DELFI C3 29 Nov 15:52:58 15:57:07 72° 102° (ESE) 16:01:15 145.870
SEEDS 29 Nov 15:57:10 16:00:57 31° 289° (WNW) 16:04:45 437.485
VELOX 1 29 Nov 15:58:39 16:02:14 24° 95° (E) 16:05:48 145.980
50 SAT 29 Nov 16:00:36 16:03:38 20° 94° (E) 16:06:39 437.505
DOVE 4 29 Nov 16:05:21 16:09:21 43° 287° (WNW) 16:13:30 437.250
UNISAT 6 29 Nov 16:05:56 16:10:12 82° 257° (WSW) 16:14:29 437.425
AAUSAT CUBESAT 2 29 Nov 16:06:33 16:10:21 33° 289° (WNW) 16:14:08 437.432
UKube-1 29 Nov 16:09:06 16:13:27 79° 285° (WNW) 16:17:46 .
POLYITAN 1 29 Nov 16:11:09 16:15:23 79° 76° (ENE) 16:19:39 437.675
QB50P2 29 Nov 16:11:39 16:15:54 80° 76° (ENE) 16:20:10 145.880/145.840
ESTCUBE 1 29 Nov 16:11:40 16:13:39 13° 91° (E) 16:15:36 437.505/2401.250
CINEMA 3 29 Nov 16:14:10 16:18:22 59° 285° (WNW) 16:22:43 145.822/145.860
BRITE-PL 29 Nov 16:14:14 16:17:12 19° 292° (WNW) 16:20:12 437.365/2234.400
DUCHIFAT 1 29 Nov 16:15:14 16:19:29 86° 76° (ENE) 16:23:44 145.980
Oscar 11 29 Nov 16:17:45 16:21:58 51° 287° (WNW) 16:26:11 145.826/435.025
FUNcube-1 29 Nov 16:17:56 16:22:11 68° 101° (ESE) 16:26:32 145.935
GONETS M04 29 Nov 16:21:23 16:26:04 15° 299° (WNW) 16:30:47
COMPASS 1 29 Nov 16:25:06 16:28:06 19° 293° (WNW) 16:31:07 437.405
AISAT 29 Nov 16:26:39 16:30:58 50° 100° (E) 16:35:15 437.250
CUBEBUG 1 29 Nov 16:26:54 16:29:48 17° 93° (E) 16:32:41 437.445
CANX-2 29 Nov 16:32:23 16:33:54 12° 296° (WNW) 16:35:24 2200.000
NANOSAT C BR1 29 Nov 16:35:25 16:39:35 54° 260° (W) 16:43:45 145.865
ANTELSAT 29 Nov 16:35:34 16:39:30 37° 262° (W) 16:43:29 437.575/2403.000
HUMSAT D 29 Nov 16:35:46 16:39:56 65° 101° (E) 16:44:09 437.325/437.525
BUGSAT 1 29 Nov 16:37:02 16:41:14 64° 259° (W) 16:45:26 437.445
QB50P1 29 Nov 16:46:03 16:50:03 41° 261° (W) 16:54:05 145.935-145.965
SO-50 29 Nov 16:48:38 16:52:52 28° 49° (NE) 16:57:05 436.795
DX 1 29 Nov 16:48:56 16:52:39 28° 291° (WNW) 16:56:20 434.975-435.025
UWE-3 29 Nov 16:53:37 16:57:36 39° 288° (WNW) 17:01:41 435.000/436.395/437.385
CUBEBUG 2 29 Nov 17:01:23 17:05:04 28° 290° (WNW) 17:08:50 437.445
POPSAT HIP 1 29 Nov 17:12:17 17:15:33 21° 265° (W) 17:18:49 437.405
HO-68 29 Nov 17:14:08 17:18:16 17° 305° (NW) 17:22:25 435.675
TISAT 1 29 Nov 17:14:59 17:17:13 14° 92° (E) 17:19:27 437.305
